Regional Weather Roundup
Issued by NWS

Home | Current Version | Previous Version | Graphics & Text | Print | Product List | Glossary On
Versions: 1 2 3 4 5 6 7 8 9 10 11 12 13 14 15 16 17 18 19 20 21 22 23 24 25 26 27 28 29 30 31 32 33 34 35 36 37 38 39 40 41 42 43 44 45 46 47 48 49 50
000
ASUS43 KDMX 041707
RWRIA

WEATHER ROUNDUP FOR IOWA
NATIONAL WEATHER SERVICE DES MOINES IA
1200 PM CDT TUE AUG 04 2015

NOTE: "FAIR" INDICATES FEW OR NO CLOUDS BELOW 12,000 FEET WITH NO
SIGNIFICANT WEATHER AND/OR OBSTRUCTIONS TO VISIBILITY.

* - THESE STATIONS ARE NOT NWS STATIONS...THUS NOT UNDER NWS
QUALITY CONTROL.  THEY ALSO DO NOT REPORT WEATHER SUCH
AS PRECIPITATION OR FOG.

IAZ001>003-012>014-020>022-031>034-043>046-041800-
   NORTHWEST IOWA

CITY           SKY/WX    TMP DP  RH WIND       PRES   REMARKS
CARROLL *      SUNNY     73  63  68 S9G15     30.05S
CHEROKEE *     CLOUDY    73  61  64 SE9       30.04S
DENISON *      SUNNY     70  63  78 S9G18     30.03F
LE MARS *      SUNNY     73  64  73 SE9       30.02F
ORANGE CITY *  SUNNY     72  61  68 SE7       30.03S
SHELDON *      SUNNY     73  59  60 SE12      30.02S
SIOUX CITY     CLOUDY    72  63  73 SE12      30.00F
SPENCER        CLOUDY    76  53  44 SE12      30.04S
STORM LAKE *   SUNNY     72  59  64 SE9       30.07R
$$

IAZ055>058-069>071-079>083-090>094-041800-
   SOUTHWEST IOWA

CITY           SKY/WX    TMP DP  RH WIND       PRES   REMARKS
ATLANTIC *     SUNNY     70  64  83 E5        30.03F
AUDUBON *      SUNNY     70  63  78 SW3       30.07F
CLARINDA *     CLOUDY    70  68  94 N6        30.04F
COUNCIL BLFS * MOSUNNY   68  64  88 S17G25    30.00F
CRESTON *      MOSUNNY   66  64  94 NE6       30.04F
HARLAN  *      SUNNY     68  68 100 SE5       30.06F
LAMONI         LGT RAIN  67  64  90 S8        30.04R
RED OAK *      MOSUNNY   68  68 100 E7        30.01F
SHENANDOAH *   SUNNY     70  68  94 E8        30.01F
$$

IAZ047>049-059>061-072>074-084-041800-
   CENTRAL IOWA

CITY           SKY/WX    TMP DP  RH WIND       PRES   REMARKS
AMES           CLOUDY    76  61  59 CALM      30.03F
ANKENY *       CLOUDY    73  61  64 CALM      30.04S
CHARITON *     MOSUNNY   66  61  82 SE9       30.04F
DES MOINES     CLOUDY    73  59  61 CALM      30.05R
GRINNELL*      CLOUDY    75  61  60 SW6       30.05S
KNOXVILLE *    PTSUNNY   72  63  73 S6        30.05S
MARSHALLTOWN   CLOUDY    75  59  57 N3        30.04S
PELLA *        CLOUDY    73  68  83 S3        30.07R
PERRY *          N/A     75  63  64 SW5       30.05S
$$

IAZ004>006-015-016-023>025-035-036-041800-
   NORTH CENTRAL IOWA

CITY           SKY/WX    TMP DP  RH WIND       PRES   REMARKS
ALGONA *       SUNNY     75  52  43 E7        30.05S
CLARION *      SUNNY     75  55  50 E5        30.05F
ESTHERVILLE      N/A     74  50  42 E7        30.04S
FORT DODGE *   CLOUDY    73  59  60 SE6       30.05F
MASON CITY     PTSUNNY   76  51  41 N5        30.07R
FOREST CITY *  SUNNY     72  52  49 CALM      30.06S
IOWA FALLS *     N/A     75  55  50 CALM      30.06F
$$

IAZ007>011-017>019-026>030-037>042-050>054-066-041800-
   NORTHEAST IOWA

CITY           SKY/WX    TMP DP  RH WIND       PRES   REMARKS
CEDAR RAPIDS   PTSUNNY   75  62  64 W6        30.03R
CHARLES CITY * SUNNY     73  55  53 N6        30.06R
CLINTON *      PTSUNNY   75  61  60 NW10      30.04S
DECORAH *      SUNNY     72  55  56 VRB5      30.04R
DUBUQUE        CLOUDY    75  56  51 NW8       30.02S
MONTICELLO *   PTSUNNY   77  57  50 W8G14     30.02S
OELWEIN *      SUNNY     73  59  60 NW6       30.05S
WATERLOO       PTSUNNY   77  57  50 N9        30.03S
$$

IAZ064-065-067-068-078-041800-
   EAST CENTRAL IOWA

CITY           SKY/WX    TMP DP  RH WIND       PRES   REMARKS
DAVENPORT      PTSUNNY   78  59  51 W8        30.02S
IOWA CITY      PTSUNNY   77  60  55 W9        30.04R
MT. PLEASANT * CLOUDY    79  59  50 SW5       30.05R HX  80
MUSCATINE *    SUNNY     79  59  50 NW9       30.03R HX  80
QUAD CITIES    PTSUNNY   81  57  43 W10       30.01R HX  81
$$

IAZ062-063-075>077-085>089-095>099-041800-
   SOUTHEAST IOWA

CITY           SKY/WX    TMP DP  RH WIND       PRES   REMARKS
BURLINGTON     CLOUDY    76  61  59 VRB6      30.04R
FAIRFIELD *    SUNNY     73  61  64 SW5       30.07R
FORT MADISON * MOSUNNY   73  63  68 SW3       30.06R
KEOKUK *       RAIN      68  63  83 S6        30.04S
OSKALOOSA *      N/A     72  63  73 SW3       30.07R
CENTERVILLE *  HVY RAIN  64  63  94 CALM      30.10S
OTTUMWA        CLOUDY    72  65  78 SW9       30.06R
WASHINGTON *   SUNNY     75  63  64 W6        30.06S
$$

ABBREVIATIONS USED IN REMARKS
   TC - TEMPERATURES IN CELSIUS
  WCI - WIND CHILL INDEX
   HX - HEAT INDEX
  VSB - VISIBILITY
$$




USA.gov is the U.S. government's official web portal to all federal, state and local government web resources and services.